This demonstration page uses our WeatherBlox Daily Observations layout. Learn more.

Left ArrowRight Arrow

36.17497, -115.13722

Hourly Observations for August 10, 2019

Temp ( °F °C ) Dew Point ( °F °C ) Humidity (%) Winds ( mph kmh ) Pressure ( in mb ) Visibility ( mi km ) Precip ( " mm )
12:53 am 00:53 Clear 82 27.8 30 -1.1 15 15 S 5 7 29.78 1008 10 16 0.00 0.00
1:53 am 01:53 Clear 81 27.2 28 -2.2 14 14 SSE 7 11 29.78 1009 10 16 0.00 0.00
2:53 am 02:53 Clear 82 27.8 27 -2.8 13 13 Calm 29.78 1009 10 16 0.00 0.00
3:53 am 03:53 Clear 76 24.4 29 -1.7 18 18 E 5 7 29.79 1009 10 16 0.00 0.00
4:53 am 04:53 Clear 76 24.4 31 -0.6 19 19 Calm 29.80 1009 10 16 0.00 0.00
5:53 am 05:53 Clear 73 22.8 33 0.6 23 23 Calm 29.83 1010 10 16 0.00 0.00
6:53 am 06:53 Sunny 76 24.4 33 0.6 21 21 Calm 29.85 1011 10 16 0.00 0.00
7:53 am 07:53 Sunny 80 26.7 36 2.2 20 20 S 6 9 29.85 1011 10 16 0.00 0.00
8:53 am 08:53 Sunny 85 29.4 36 2.2 17 17 S 10 17 29.85 1011 10 16 0.00 0.00
9:53 am 09:53 Sunny 90 32.2 34 1.1 14 14 S 15 24 29.84 1011 10 16 0.00 0.00
10:53 am 10:53 Sunny 92 33.3 30 -1.1 11 11 S 14 22 29.84 1010 10 16 0.00 0.00
11:53 am 11:53 Sunny 96 35.6 22 -5.6 7 7 SSW 13 20 29.83 1010 10 16 0.00 0.00
12:53 pm 12:53 Sunny 97 36.1 23 -5 7 7 WSW 20 31 29.81 1009 10 16 0.00 0.00
1:53 pm 13:53 Sunny 98 36.7 22 -5.6 6 6 SW 16 26 29.79 1009 10 16 0.00 0.00
2:53 pm 14:53 Sunny 99 37.2 18 -7.8 5 5 SW 7 11 29.77 1008 10 16 0.00 0.00
3:53 pm 15:53 Sunny 99 37.2 15 -9.4 5 5 W 21 33 29.75 1008 10 16 0.00 0.00
4:53 pm 16:53 Sunny 99 37.2 11 -11.7 4 4 WSW 16 26 29.75 1007 10 16 0.00 0.00
5:53 pm 17:53 Sunny 98 36.7 10 -12.2 4 4 SW 20 31 29.75 1007 10 16 0.00 0.00
6:53 pm 18:53 Sunny 96 35.6 19 -7.2 6 6 WSW 14 22 29.75 1007 10 16 0.00 0.00
7:53 pm 19:53 Clear 93 33.9 24 -4.4 8 8 WSW 10 17 29.76 1008 10 16 0.00 0.00
8:53 pm 20:53 Clear 92 33.3 26 -3.3 9 9 SW 8 13 29.78 1008 10 16 0.00 0.00
9:53 pm 21:53 Clear 89 31.7 27 -2.8 11 11 SW 6 9 29.78 1009 10 16 0.00 0.00
10:53 pm 22:53 Clear 85 29.4 29 -1.7 13 13 S 7 11 29.79 1009 10 16 0.00 0.00
11:53 pm 23:53 Clear 85 29.4 30 -1.1 14 14 SSW 7 11 29.80 1009 10 16 0.00 0.00

Powered by AerisWeather